Other Public Products
Issued by NWS Grand Forks, ND

Home | Current Version | Previous Version | Text Only | Print | Product List | Glossary On
Versions: 1 2 3 4 5 6 7 8 9 10 11 12 13 14 15 16 17 18 19 20 21 22 23 24 25 26 27 28 29 30 31 32 33 34 35 36 37 38 39 40 41 42 43 44 45 46 47 48 49 50
000
FPUS83 KFGF 250810
OPUFGF
PRAIRIE TO PINES WEATHER ROUNDUP
NATIONAL WEATHER SERVICE EASTERN NORTH DAKOTA/GRAND FORKS ND
200 AM CST SAT FEB 25 2017

 **SATELLITE DATA USED TO AUGMENT SKY COVER AT AUTOMATED STATIONS**
 *****  WEATHER ACROSS EASTERN NORTH DAKOTA  *****

CITY           SKY/WX    TMP DP  RH WIND       PRES   REMARKS
GRAND FORKS    FAIR      16   9  74 SW6       30.04F WCI   7
GRAND FORKS AF FAIR      14  10  85 W3        30.03F
GRAND CITY NWS NOT AVBL
BUXTON         NOT AVBL
DEVILS LAKE    FAIR      15  11  83 SW6       29.98F WCI   6
FARGO          FAIR      15  12  88 CALM      30.06F
WAHPETON ARPT  FAIR      18  12  79 NW7       30.06F WCI   8
$$

 *****  WEATHER ACROSS CENTRAL AND WESTERN NORTH DAKOTA  *****

CITY           SKY/WX    TMP DP  RH WIND       PRES   REMARKS
JAMESTOWN      FAIR      15  11  83 SW3       30.02F
BISMARCK       FAIR      15  12  88 SE5       30.03F WCI   8
MINOT          LGT SNOW  25  21  85 SW9       29.95F FOG     WCI  15
MINOT AFB      MOCLDY    23  19  86 SW10      29.95F WCI  12
GARRISON         N/A     16  13  88 SW3       29.98F
WILLISTON      CLOUDY    23  20  88 NW3       29.99F
DICKINSON      CLOUDY    19  14  81 S8        29.94F WCI   9
HETTINGER      FAIR      20  14  77 CALM      29.99F
$$

 *****  OTHER OBSERVATIONS NORTHEAST NORTH DAKOTA  *****

CITY           SKY/WX    TMP DP  RH WIND       PRES   REMARKS
WALHALLA       NOT AVBL
LANGDON        NOT AVBL
CAVALIER       FLURRIES  16  12  86 SW5       30.01F WCI   9
GRAFTON        PTSUNNY   12  12 100 SW6       30.05F WCI   3
CANDO          NOT AVBL
FORT TOTTEN      N/A     12  11  96 SE2       29.95S
ROLLA          FAIR      16  14  93 W14       29.94F WCI   1
RUGBY            N/A     16  14  93 SW12      29.97F WCI   3
 ***** THE ABOVE OBSERVATIONS ARE NON NWS ARE NOT QUALITY
        CONTROLLED AND MAY MIS-REPORT RAIN FOR SNOW...
$$

 *****  OTHER OBSERVATIONS SOUTHEAST NORTH DAKOTA *****

CITY           SKY/WX    TMP DP  RH WIND       PRES   REMARKS
COOPERSTOWN    FAIR      14  12  92 SW5       30.02F WCI   6
VALLEY CITY    CLOUDY    16  16 100 W7        30.04F WCI   6
OAKES          NOT AVBL
GWINNER        FAIR      18  16  93 W8        30.06F WCI   7
SHEYENNE NWR     N/A     12   8  85 W3        29.95S
BUFFALO        NOT AVBL
WYNDMERE       NOT AVBL
 ***** THE ABOVE OBSERVATIONS ARE NON NWS ARE NOT QUALITY
       CONTROLLED AND MAY MIS-REPORT RAIN FOR SNOW...
$$

  *****  WEATHER ACROSS NORTHERN MINNESOTA  *****

CITY           SKY/WX    TMP DP  RH WIND       PRES   REMARKS
FLAG ISLAND    FAIR       5   0  78 W12       29.97F WCI -11
WARROAD        FAIR       3   0  85 W3        29.98F
ROSEAU         FAIR       5   1  85 W5        29.99F WCI  -4
HALLOCK        MOCLDY     9   7  92 CALM      30.02F
THF RVR FALLS  FAIR       9   6  88 NW3       30.02F
HALSTAD          N/A     16  12  86 CALM        N/A
FOSSTON        FAIR       9   5  85 NW8       30.00F WCI  -4
BAUDETTE       FAIR       5  -1  76 W8        29.96F WCI  -8
WASKISH        FAIR       7   1  78 NW7       29.96F WCI  -5
CROOKSTON      FAIR      14  10  85 NW5       30.05F WCI   6
$$
  *****  WEATHER ACROSS CENTRAL AND WEST MINNESOTA  *****

CITY           SKY/WX    TMP DP  RH WIND       PRES   REMARKS
BEMIDJI        FAIR       7   2  81 NW10      29.96S WCI  -8
PARK RAPIDS    FAIR      10   0  63 NW10      29.95S WCI  -4
WADENA         FAIR      10   5  79 NW8       29.96F WCI  -1
DETROIT LAKES  FAIR      14   9  79 NW12      30.01S WCI   0
MOORHEAD       FAIR      16  12  86 NW5       30.06F WCI   9
FERGUS FALLS   FAIR      16   9  73 N10G18    30.08S WCI   3
ELBOW LAKE     FAIR      15   8  73 NW13      30.02F WCI   1
MORRIS MN      FAIR      16   9  73 NW15      30.02S WCI   1
STAPLES        FAIR      10   3  72 NW14      29.95F WCI  -5
WHEATON        FAIR      16  12  86 W7        30.07F WCI   6
$$
  *****  WEATHER ELSEWHERE ACROSS MINNESOTA  *****

CITY           SKY/WX    TMP DP  RH WIND       PRES   REMARKS
DULUTH         FAIR      11   4  73 NW13      29.78F WCI  -4
INTRNTL FALLS  FAIR       4  -1  80 NW8       29.92F WCI  -9
ELY            CLOUDY     9   1  72 N9G18     29.80F WCI  -5
CLOQUET        FAIR      10   1  67 NW13G18   29.82F WCI  -5
BRAINERD       FAIR      12   4  70 NW16      29.94S WCI  -5
HIBBING        FAIR       7   1  76 NW16      29.86S WCI -11
ALEXANDRIA     FAIR      14   5  67 NW13G22   29.97F WCI   0
SAINT CLOUD    FAIR      15   7  70 N15G21    29.94R WCI   0
MINNEAPOLIS    FAIR      18   4  54 N24G31    29.90S WCI   0
$$

  *****  WEATHER ACROSS SOUTH DAKOTA  *****

CITY           SKY/WX    TMP DP  RH WIND       PRES   REMARKS
SIOUX FALLS    FAIR      17  13  84 NW10      30.06S WCI   5
BROOKINGS      FAIR      16  13  88 NW9       30.03F WCI   4
WATERTOWN      FAIR      14  11  87 NW8       30.03F WCI   3
HURON          FAIR      16  13  88 NW5       30.10F WCI   9
SISSETON         N/A     17  13  84 NW9       30.05F WCI   6
ABERDEEN       FAIR      14  10  84 W3        30.08F
MITCHELL       FAIR      19  15  84 NW7       30.12F WCI  10
PIERRE         CLOUDY    21  16  81 S5        30.08F WCI  15
MOBRIDGE       CLOUDY    23  15  71 SE6       30.03F WCI  16
RAPID CITY     FAIR      13  10  88 CALM      29.98F
$$

  *****  SOME WEATHER IN NEARBY STATES *****

CITY           SKY/WX    TMP DP  RH WIND       PRES   REMARKS
GLASGOW MT     FAIR      16  12  84 W7        30.01F WCI   6
GREAT FALLS MT FAIR      17  12  80 SW10      30.00F WCI   5
CHEYENNE WY    FAIR      13   4  67 SW6       29.92F WCI   4
SCOTTSBLUFF NE FOG        5   2  87 NW5       30.02F VSB 3/4 WCI  -4
OMAHA NE       FAIR      20  13  74 NW10      30.08S WCI   9
DES MOINES IA  MOCLDY    21  14  74 NW17      29.97R WCI   7
DAVENPORT IA   LGT SNOW  23  19  85 NW16G26   29.77R FOG     WCI  10
CHICAGO IL     FLURRIES  31  25  78 W9        29.60S WCI  23
EAU CLAIRE WI  MOCLDY    17   7  64 NW10      29.78F WCI   5
LA CROSSE WI   LGT SNOW  22  15  75 NW18      29.79F WCI   7
$$

  *****  SOME NATIONAL WEATHER *****

CITY           SKY/WX    TMP DP  RH WIND       PRES   REMARKS
LA GUARDIA NY  CLOUDY    53  50  89 S6        29.82F
RALEIGH NC     FAIR      61  57  87 S6        29.79F
ATLANTA GA     FAIR      65  57  75 SW9       29.78S
NEW ORLEANS LA CLOUDY    68  65  90 W9        29.87R
OKLAHOMA CITY  FAIR      29  19  66 N18       30.19R WCI  16
ALBUQUERQUE NM FAIR      32  -2  23 N3        30.10R
SALT LAKE CITY FAIR      23  13  65 SE9       30.13S WCI  13
LOS ANGELES CA FAIR      49  41  74 NE5       30.18R
BOISE ID       FAIR      26  16  65 SE7       30.15S WCI  18
SEATTLE WA     CLOUDY    39  32  76 CALM      30.24S
$$

*** WEATHER ACROSS MANITOBA...SASKATCHEWAN AND ONTARIO ***
                ***ONTARIO***

CITY           SKY/WX    TMP DP  RH WIND       PRES   REMARKS
GERALDTON      CLOUDY     5   0  78 N10       29.71F WCI -10
THUNDER BAY    FLURRIES  14   7  73 NW14      29.75F WCI  -1
SIOUX LOOKOUT  FLURRIES  10   3  72 NW8       29.85F WCI  -1
TORONTO        RAIN      37  37 100 SE6       29.50F FOG
BIG TROUT LK   CLEAR    -11 -17  77 N5        29.93F WCI -23
PICKLE LAKE    NOT AVBL
DRYDEN         CLOUDY     7   3  85 NW6       29.87F WCI  -3
KENORA         CLEAR      3  -2  78 NW7       29.91F WCI  -9
$$
                *** MANITOBA***

CITY           SKY/WX    TMP DP  RH WIND       PRES   REMARKS
BRANDON        CLOUDY    12  10  92 SW7       29.94F WCI   2
DAUPHIN        MOCLDY    18  16  93 W7        29.95F WCI   8
ISLAND LAKE    FLURRIES  -4  -8  84 W5        29.95F WCI -15
PILOT MOUND      N/A     14   9  79 SW6         N/A  WCI   5
THE PAS        FLURRIES   7   1  78 W12       29.98F WCI  -9
THOMPSON       NOT AVBL
WINNIPEG       PTCLDY    10   5  79 S5        30.00F WCI   2
LYNN LAKE      CLEAR     -8  -9  92 W7        29.94F WCI -22
CHURCHILL      PTCLDY   -13 -17  84 S8        30.04F WCI -30
GILLAM         CLEAR    -15 -20  76 NE5       29.99F WCI -27
$$
                ***SASKATCHEWAN***

CITY           SKY/WX    TMP DP  RH WIND       PRES   REMARKS
ESTEVAN        FOG       21  19  93 NW13      29.97F VSB 1/4 WCI   9
KINDERSLEY     MOCLDY     9   5  85 N6        30.05F WCI  -1
LLOYDMINSTER   CLEAR     -2  -6  84 SW7       30.04F WCI -16
PRINCE ALBERT  FLURRIES   5  -2  72 NW6       30.07F WCI  -6
REGINA         FLURRIES  18  16  93 NW14      30.00S WCI   4
YORKTON        LGT SNOW  18  16  93 NW9       29.93F WC



USA.gov is the U.S. government's official web portal to all federal, state and local government web resources and services.